STARLINK-3825, 52478

Orbit data source: Space-Track

STARLINK-3825, 52478 is a payload satellite owned by SpaceX/Seattle (US) in LEO that was launched on Fri, 06 May 2022 UTC via an FALCON 9 launch vehicle from the Air Force Eastern Test Range (AFETR). Payload-class satellites include a variety of spacecraft equipped with specific instruments for various scientific and technological missions. These include communications satellites like Starlink; space stations such as the ISS; scientific satellites like the Hubble; Earth observation satellites from companies like Planet Labs, Umbra, and HawkEye 360; GPS; miniature CubeSats for education and research; and military/defense satellites.

Loading next visibility...
Identifier
52478, 2022-049AD
Orbit
LEO
Country
Flag of USUS
Related business
Manufacturer
SpaceX/Seattle
Mission
Operational Commercial Communications
Bus & Motor
STARLINK, Unknown motor
Mass
297 kg wet, ~220 kg dry
Launch date (UTC)
2022-05-06 (4 years ago)
Launch vehicle
FALCON 9
Launch site
Air Force Eastern Test Range (AFETR)
Object type
Payload
Rocket body
Debris
Shape & HBR
Box + 1 Pan, 10.1 m
Radar Cross Section
13.562 m², Large (>1 m²)

Expand to show TLE details & history
Last TLE update: 9 hours ago

TLE from 9 hours ago
0 STARLINK-3825
1 52478U 22049AD  26220.00002315  .00047402  00000-0  16048-2 0  9994
2 52478  53.1593  97.8152 0002095  83.3518  94.6663 15.30150733  5816
Epoch: 2026-08-08T00:00Z
TLE epoch observation values (Epoch: 2026-08-08T00:00:02.000Z)
Latitude
1.49601°
Longitude
-39.82573°
Altitude
476.197 km
Speed
7.629 km/s
True Right ascension
18h 26m 48s
True Declination
1° 29' 12"
Sunlit
Object was in full shadow at epoch
Visualization orbit readout
Latitude
Unknown
Longitude
Unknown
Altitude
Unknown
Speed
Unknown
Apparent Right ascension
Unknown
Apparent Declination
Unknown
Sunlit
N/A
Visualization observer readout
Local Sidereal Time
23:28:38
Azimuth
Unknown
Elevation
Unknown
Doppler factor
Unknown
Orbital elements
Apogee altitude
477.055 km
Perigee altitude
474.183 km
Semi-major axis
6,853.756 km
Eccentricity
0.00021
Inclination
53.1593°
RAAN
97.8152°
Arg. of periapsis
83.3518°
True anomaly
94.69023°
Mean anomaly
94.6663°
Eccentric anomaly
94.67826°
Mean motion
3.82517 °/min
Orbital period
94.11 mins
BSTAR
0.0016048
Loading maneuver chart data...
Computing Atmospheric mass density...
Loading historical data...
Loading historical data...
Loading historical data...
Loading historical data...
Loading historical data...
Loading historical data...
Loading historical data...

Documentation

Showing up to 5 results
|